Date String (YYYY-MM-DD hh:mm:ss) UTC,Instrument flags,Ambient pressure (hPa),Sample flow (lpm),Bypass flow (lpm),Sample temperature (°C),Ambient temperature (°C),ASC tube jacket temperature (°C),LED temperature (°C),Box temperature (°C),Sample RH (%),Span deviation,Mass concentration (μg/m³),Mass concentration (μg/m³),Mass concentration (μg/m³)
DateTimeUTC,F1_M11,P_M11,Q1_M11,Q2_M11,T1_M11,T2_M11,T3_M11,T4_M11,T5_M11,U1_M11,ZSPAN_M11,X0_M11,X2_M11,X1_M11
2022-06-12 08:00:00,,0821.2,4.99,0.00,29.3,28.3,00.0,38.1,31.2,16.4,0000.0,0013.80,0005.02,0003.63
2022-06-12 08:01:00,,0821.2,5.01,0.00,29.3,28.4,00.0,38.1,31.3,16.3,0000.0,0014.03,0004.99,0003.62
2022-06-12 08:02:00,,0821.2,5.01,0.00,29.3,28.4,00.0,38.2,31.3,16.2,0000.0,0014.19,0005.00,0003.60
2022-06-12 08:03:00,,0821.2,5.00,0.00,29.4,28.5,00.0,38.2,31.3,16.2,0000.0,0014.42,0004.95,0003.59
2022-06-12 08:04:00,,0821.2,5.01,0.00,29.4,28.5,00.0,38.2,31.3,16.3,0000.0,0014.56,0004.89,0003.59
2022-06-12 08:05:00,,0821.2,4.99,0.00,29.4,28.5,00.0,38.2,31.4,16.4,0000.0,0014.47,0004.87,0003.59
2022-06-12 08:06:00,,0821.2,5.01,0.00,29.4,28.6,00.0,38.2,31.4,16.2,0000.0,0014.48,0004.87,0003.58
2022-06-12 08:07:00,,0821.2,5.01,0.00,29.4,28.6,00.0,38.2,31.4,16.0,0000.0,0013.82,0004.88,0003.58
2022-06-12 08:08:00,,0821.2,5.01,0.00,29.5,28.6,00.0,38.3,31.4,15.9,0000.0,0013.05,0004.85,0003.57
2022-06-12 08:09:00,,0821.2,5.00,0.00,29.5,28.4,00.0,38.2,31.4,15.9,0000.0,0012.74,0004.82,0003.57
2022-06-12 08:10:00,,0821.2,4.99,0.00,29.4,27.7,00.0,38.2,31.2,16.0,0000.0,0012.98,0004.84,0003.58
2022-06-12 08:11:00,,0821.1,5.01,0.00,29.4,27.4,00.0,38.1,31.1,16.0,0000.0,0013.15,0004.89,0003.58
2022-06-12 08:12:00,,0821.1,5.00,0.00,29.3,27.3,00.0,38.1,31.0,16.1,0000.0,0012.21,0004.88,0003.57
2022-06-12 08:13:00,,0821.1,5.00,0.00,29.2,27.3,00.0,38.1,31.0,16.2,0000.0,0012.08,0004.88,0003.57
2022-06-12 08:14:00,,0821.1,5.00,0.00,29.2,27.4,00.0,38.1,31.0,16.2,0000.0,0013.03,0004.95,0003.57
2022-06-12 08:15:00,,0821.1,5.00,0.00,29.2,27.5,00.0,38.1,31.0,16.3,0000.0,0012.63,0005.00,0003.57
2022-06-12 08:16:00,,0821.1,5.01,0.00,29.2,27.6,00.0,38.1,31.0,16.3,0000.0,0013.76,0005.00,0003.56
2022-06-12 08:17:00,,0821.2,5.00,0.00,29.2,27.8,00.0,38.1,31.1,16.3,0000.0,0014.20,0005.03,0003.56
2022-06-12 08:18:00,,0821.1,4.99,0.00,29.2,27.9,00.0,38.1,31.1,16.2,0000.0,0014.36,0005.08,0003.55
2022-06-12 08:19:00,,0821.1,5.01,0.00,29.2,28.0,00.0,38.1,31.1,16.3,0000.0,0014.37,0005.10,0003.55
2022-06-12 08:20:00,,0821.1,5.00,0.00,29.2,28.1,00.0,38.1,31.1,16.3,0000.0,0014.49,0005.11,0003.54
2022-06-12 08:21:00,,0821.1,5.02,0.00,29.2,28.1,00.0,38.1,31.2,16.4,0000.0,0014.26,0005.05,0003.54
2022-06-12 08:22:00,,0821.1,4.99,0.00,29.3,28.2,00.0,38.1,31.2,16.4,0000.0,0013.93,0004.99,0003.52
2022-06-12 08:23:00,,0821.1,4.99,0.00,29.3,28.3,00.0,38.1,31.2,16.4,0000.0,0014.07,0005.00,0003.52
2022-06-12 08:24:00,,0821.1,5.01,0.00,29.3,28.3,00.0,38.2,31.2,16.5,0000.0,0014.13,0005.00,0003.51
2022-06-12 08:25:00,,0821.1,5.00,0.00,29.3,28.4,00.0,38.2,31.3,16.4,0000.0,0013.15,0004.97,0003.51
2022-06-12 08:26:00,,0821.1,5.00,0.00,29.4,28.4,00.0,38.2,31.3,16.4,0000.0,0013.12,0004.95,0003.48
2022-06-12 08:27:00,,0821.1,5.01,0.00,29.4,28.5,00.0,38.2,31.3,16.3,0000.0,0012.74,0004.88,0003.46
2022-06-12 08:28:00,,0821.1,5.00,0.00,29.4,28.5,00.0,38.2,31.3,16.3,0000.0,0012.64,0004.83,0003.45
2022-06-12 08:29:00,,0821.1,5.00,0.00,29.4,28.5,00.0,38.2,31.4,16.2,0000.0,0012.36,0004.79,0003.44
2022-06-12 08:30:00,,0821.1,4.98,0.00,29.4,28.6,00.0,38.2,31.4,16.2,0000.0,0012.53,0004.78,0003.43
2022-06-12 08:31:00,,0821.2,5.00,0.00,29.5,28.6,00.0,38.3,31.4,16.1,0000.0,0013.68,0004.78,0003.43
2022-06-12 08:32:00,,0821.2,5.01,0.00,29.5,28.6,00.0,38.3,31.4,16.2,0000.0,0013.54,0004.76,0003.43
2022-06-12 08:33:00,,0821.2,5.00,0.00,29.5,28.7,00.0,38.3,31.5,16.2,0000.0,0013.44,0004.78,0003.44
2022-06-12 08:34:00,,0821.1,5.00,0.00,29.5,28.7,00.0,38.3,31.5,16.0,0000.0,0013.35,0004.76,0003.44
2022-06-12 08:35:00,,0821.1,4.99,0.00,29.6,28.5,00.0,38.3,31.5,16.0,0000.0,0013.40,0004.77,0003.44
2022-06-12 08:36:00,,0821.1,5.01,0.00,29.5,27.8,00.0,38.2,31.3,16.1,0000.0,0013.77,0004.76,0003.44
2022-06-12 08:37:00,,0821.1,5.00,0.00,29.4,27.4,00.0,38.2,31.2,16.1,0000.0,0013.76,0004.79,0003.45
2022-06-12 08:38:00,,0821.1,5.01,0.00,29.4,27.3,00.0,38.2,31.0,16.2,0000.0,0013.73,0004.87,0003.48
2022-06-12 08:39:00,,0821.2,4.99,0.00,29.3,27.4,00.0,38.2,31.0,16.3,0000.0,0013.63,0004.90,0003.48
2022-06-12 08:40:00,,0821.2,5.00,0.00,29.3,27.4,00.0,38.2,31.0,16.3,0000.0,0013.65,0004.87,0003.47
2022-06-12 08:41:00,,0821.1,5.00,0.00,29.2,27.6,00.0,38.2,31.1,16.4,0000.0,0013.78,0004.88,0003.47
2022-06-12 08:42:00,,0821.1,5.01,0.00,29.2,27.7,00.0,38.2,31.1,16.4,0000.0,0012.66,0004.88,0003.46
2022-06-12 08:43:00,,0821.2,5.00,0.00,29.2,27.8,00.0,38.2,31.1,16.4,0000.0,0012.68,0004.88,0003.45
2022-06-12 08:44:00,,0821.1,4.99,0.00,29.3,27.9,00.0,38.2,31.1,16.5,0000.0,0013.63,0004.90,0003.43
2022-06-12 08:45:00,,0821.1,4.99,0.00,29.3,28.0,00.0,38.2,31.2,16.5,0000.0,0013.61,0004.83,0003.41
2022-06-12 08:46:00,,0821.1,5.00,0.00,29.3,28.1,00.0,38.2,31.2,16.5,0000.0,0013.60,0004.78,0003.43
2022-06-12 08:47:00,,0821.2,5.01,0.00,29.3,28.1,00.0,38.2,31.2,16.6,0000.0,0012.93,0004.77,0003.43
2022-06-12 08:48:00,,0821.2,5.00,0.00,29.3,28.2,00.0,38.2,31.2,16.5,0000.0,0012.67,0004.75,0003.44
2022-06-12 08:49:00,,0821.2,5.00,0.00,29.3,28.3,00.0,38.2,31.2,16.5,0000.0,0012.27,0004.74,0003.42
2022-06-12 08:50:00,,0821.2,5.00,0.00,29.3,28.3,00.0,38.2,31.3,16.4,0000.0,0011.65,0004.71,0003.42
2022-06-12 08:51:00,,0821.2,5.00,0.00,29.4,28.4,00.0,38.2,31.3,16.4,0000.0,0011.77,0004.71,0003.43
2022-06-12 08:52:00,,0821.2,5.01,0.00,29.4,28.4,00.0,38.2,31.3,16.5,0000.0,0011.44,0004.64,0003.43
2022-06-12 08:53:00,,0821.3,5.00,0.00,29.4,28.4,00.0,38.2,31.3,16.4,0000.0,0011.69,0004.65,0003.43
2022-06-12 08:54:00,,0821.3,5.00,0.00,29.4,28.5,00.0,38.3,31.3,16.4,0000.0,0012.53,0004.64,0003.44
2022-06-12 08:55:00,,0821.3,4.99,0.00,29.4,28.5,00.0,38.3,31.4,16.3,0000.0,0012.46,0004.64,0003.45
2022-06-12 08:56:00,,0821.3,5.01,0.00,29.5,28.6,00.0,38.3,31.4,16.2,0000.0,0012.47,0004.66,0003.46
2022-06-12 08:57:00,,0821.3,5.01,0.00,29.5,28.6,00.0,38.3,31.4,16.2,0000.0,0012.78,0004.66,0003.45
2022-06-12 08:58:00,,0821.3,5.00,0.00,29.5,28.6,00.0,38.3,31.4,16.2,0000.0,0012.96,0004.60,0003.44
2022-06-12 08:59:00,,0821.3,5.00,0.00,29.5,28.6,00.0,38.3,31.4,16.2,0000.0,0013.15,0004.55,0003.44
